Worthington, MN

4:45 AM CST on December 10, 2019 (GMT -0600)
Worthington Municipal

Weather History for KOTG - October, 2019

Change the Weather History Date:

Wednesday, October 30, 2019

  Actual Average Record
Temperature  
Mean Temperature 24 °F -  
Max Temperature 30 °F 47 °F 73 °F (2008)
Min Temperature 18 °F 31 °F 13 °F (1991)
Degree Days  
Heating Degree Days 41    
Moisture  
Dew Point 15 °F    
Average Humidity 70    
Maximum Humidity 84    
Minimum Humidity 51    
Precipitation  
Precipitation 0.00 in - - ()
Sea Level Pressure  
Sea Level Pressure 30.38 in    
Wind  
Wind Speed 7 mph (WNW)    
Max Wind Speed 15 mph    
Max Gust Speed -    
Visibility 10 miles    
Events      
Averages and records for this station are not official NWS values.
T = Trace of Precipitation, MM = Missing Value Source: NWS Daily Summary

Daily Weather History Graph

Daily Weather History Graph

Search for Another Location

Airport or City:

Astronomy

Oct. 30, 2019 Rise Set
Actual Time 7:55 AM CDT 6:16 PM CDT
Civil Twilight 7:25 AM CDT 6:45 PM CDT
Nautical Twilight 6:51 AM CDT 7:19 PM CDT
Astronomical Twilight 6:18 AM CDT 7:52 PM CDT
Moon 10:43 AM CDT (10/30) 8:20 PM CDT (10/30)
Length of Visible Light 11h 20m
Length of Day
10h 20m
Waxing Crescent, 9% of the Moon is Illuminated
Oct 30
Waxing Crescent
Nov 4
First Quarter
Nov 12
Full
Nov 19
Last Quarter
Nov 26
New

Hourly Weather History & Observations

Time (CDT) Temp. Windchill Dew Point Humidity Pressure Visibility Wind Dir Wind Speed Gust Speed Precip Events Conditions
12:56 AM 21.0 °F 13.4 °F 14.0 °F 74% 30.44 in 10.0 mi WNW 5.8 mph - N/A   Clear
1:56 AM 19.0 °F 11.1 °F 12.9 °F 77% 30.44 in 10.0 mi WNW 5.8 mph - N/A   Clear
2:56 AM 18.0 °F 8.7 °F 12.9 °F 81% 30.45 in 10.0 mi WNW 6.9 mph - N/A   Clear
3:56 AM 18.0 °F 8.7 °F 14.0 °F 84% 30.42 in 10.0 mi NW 6.9 mph - N/A   Clear
4:56 AM 21.0 °F 14.6 °F 15.1 °F 78% 30.43 in 10.0 mi WNW 4.6 mph - N/A   Clear
5:56 AM 21.0 °F 13.4 °F 15.1 °F 78% 30.45 in 10.0 mi West 5.8 mph - N/A   Clear
6:56 AM 21.9 °F 12.5 °F 15.1 °F 75% 30.43 in 10.0 mi NW 8.1 mph - N/A   Partly Cloudy
7:56 AM 21.9 °F 14.5 °F 15.1 °F 75% 30.44 in 10.0 mi West 5.8 mph - N/A   Mostly Cloudy
8:56 AM 23.0 °F 14.7 °F 16.0 °F 74% 30.45 in 10.0 mi West 6.9 mph - N/A   Overcast
9:56 AM 24.1 °F 13.7 °F 16.0 °F 71% 30.45 in 10.0 mi West 10.4 mph - N/A   Overcast
10:56 AM 25.0 °F 15.5 °F 16.0 °F 69% 30.44 in 10.0 mi WNW 9.2 mph - N/A   Overcast
11:56 AM 26.1 °F 16.2 °F 16.0 °F 66% 30.44 in 10.0 mi West 10.4 mph - N/A   Overcast
12:56 PM 28.0 °F 18.1 °F 15.1 °F 58% 30.40 in 10.0 mi WNW 11.5 mph - N/A   Mostly Cloudy
1:56 PM 28.9 °F 18.2 °F 12.9 °F 51% 30.37 in 10.0 mi WNW 13.8 mph - N/A   Mostly Cloudy
2:56 PM 30.0 °F 20.5 °F 15.1 °F 54% 30.34 in 10.0 mi WNW 11.5 mph - N/A   Overcast
3:56 PM 30.9 °F 20.2 °F 15.1 °F 52% 30.32 in 10.0 mi NNW 15.0 mph - N/A   Partly Cloudy
4:56 PM 30.0 °F 21.1 °F 16.0 °F 56% 30.31 in 10.0 mi NW 10.4 mph - N/A   Clear
5:56 PM 28.9 °F 21.1 °F 15.1 °F 56% 30.30 in 10.0 mi NNW 8.1 mph - N/A   Clear
6:56 PM 25.0 °F 18.1 °F 15.1 °F 66% 30.31 in 10.0 mi NW 5.8 mph - N/A   Clear
7:56 PM 23.0 °F 14.7 °F 15.1 °F 72% 30.30 in 7.0 mi WNW 6.9 mph - N/A   Clear
8:56 PM 21.0 °F 11.4 °F 15.1 °F 78% 30.30 in 10.0 mi WNW 8.1 mph - N/A   Clear
9:56 PM 19.9 °F 11.1 °F 14.0 °F 78% 30.29 in 10.0 mi WNW 6.9 mph - N/A   Clear
10:56 PM 19.9 °F 11.1 °F 14.0 °F 78% 30.28 in 10.0 mi WNW 6.9 mph - N/A   Clear
11:56 PM 18.0 °F 12.7 °F 14.0 °F 84% 30.28 in 10.0 mi West 3.5 mph - N/A   Clear